Weather in Qozoqdaryo

Uzbekistan     43°25′17″N   59°39′04″E
temp.,
°C
wind,
m/s
gust,
m/s
humid.,
%
clouds,
%
prec.,
mm/h
press.,
hPa
HPBL,
m
8 august, mon
mon823:00+25n58630 0.0 1008136
02:00+25nne59650 0.0 1008141
05:00+24nne57730 0.0 1008105
08:00+25nne45664 0.0 101090
11:00+27nne564381 0.0 1010239
14:00+28nne78385 0.0 1010487
17:00+27n784619 0.0 1010296
20:00+26n6753100 0.0 1010115
9 august, tue
tue923:00+25n4563100 0.0 101058
02:00+25n4563100 0.0 100958
05:00+25n4464100 0.0 100934
08:00+26n56625 0.0 1010150
11:00+27n564799 0.0 1010381
14:00+27nne784696 0.0 1010378
17:00+26nne894996 0.0 1011273
20:00+25nne795587 0.0 1011252
10 august, wed
wed1023:00+24n58626 0.0 1011209
02:00+24n59671 0.0 1011202
05:00+24nne69715 0.0 1012217
08:00+24nne67630 0.0 1013208
11:00+26nne79470 0.0 1014358
14:00+26nne89460 0.0 1013413
17:00+26nne911470 0.0 1013385
20:00+25nne811550 0.0 1013295
11 august, thu
thu1123:00+24nne610630 0.0 1014233
02:00+24ne711650 0.0 1013197
05:00+24ne69700 0.0 1013173
08:00+24ne58650 0.0 1015191
11:00+27nne78480 0.0 1015315
14:00+27nne810450 0.0 1015357
17:00+27nne910470 0.0 1015280
20:00+25nne710600 0.0 1015224
12 august, fri
fri1223:00+25nne610650 0.0 1014152
02:00+25nne69710 0.0 1014134
05:00+24nne57770 0.0 1015120
08:00+25nne56670 0.0 1016116
11:00+27nne67540 0.0 1015179
14:00+29nne810400 0.0 1014379
17:00+29nne79430 0.0 1014280
20:00+26n57570 0.0 101384